Weather reports worldwide

Advertisment
Öhringen, Germany (10742): temperature & dewpoint: 10.09.2019 05:00:00 - 16.09.2019 05:00:00 (CEST)Öhringen, Germany (10742): temperature 5cm & temperature -5cm: 10.09.2019 05:00:00 - 16.09.2019 05:00:00 (CEST)Öhringen, Germany (10742): temperature -20cm & temperature -100cm: 10.09.2019 05:00:00 - 16.09.2019 05:00:00 (CEST)Öhringen, Germany (10742): wind speed & gusts: 10.09.2019 05:00:00 - 16.09.2019 05:00:00 (CEST)Öhringen, Germany (10742): wind direction: 10.09.2019 05:00:00 - 16.09.2019 05:00:00 (CEST)Öhringen, Germany (10742): reduced air pressure: 10.09.2019 05:00:00 - 16.09.2019 05:00:00 (CEST)Öhringen, Germany (10742): visibility: 10.09.2019 05:00:00 - 16.09.2019 05:00:00 (CEST)Öhringen, Germany (10742): sunshine duration: 10.09.2019 05:00:00 - 16.09.2019 05:00:00 (CEST)Öhringen, Germany (10742): precipitation: 10.09.2019 05:00:00 - 16.09.2019 05:00:00 (CEST)
Date & Time tt [°C] td [°C] tt 5cm [°C] tt -5cm [°C] tt -20cm [°C] tt -100cm [°C] ff [km/h] ff [kn] fx [km/h] fx [kn] dd ppp [hPa] vv [km] sd [min] rr [mm]
16.09.2019 05:00:00 11,9 10,8 8,9 15,8 19,4 18,8 3 2 11 6 NNE 1021,5 24 0 0,0
16.09.2019 04:00:00 12,5 11,1 10,7 16,2 19,6 18,8 5 3 10 6 SSE 1021,6 30 0 0,0
16.09.2019 03:00:00 13,1 11,1 11,8 16,7 19,9 18,8 9 5 13 7 ESE 1021,8 33 0 0,0
16.09.2019 02:00:00 13,6 11,6 11,7 17,2 20,2 18,8 9 5 13 7 NNE 1021,8 32 0 0,0
16.09.2019 01:00:00 14,6 12,0 12,7 17,8 20,4 18,8 5 3 7 4 ESE 1022,0 46 0 0,0
16.09.2019 00:00:00 14,9 12,2 11,7 18,4 20,7 18,8 1 1 8 4 ENE 1021,8 53 0 0,0
15.09.2019 23:00:00 15,7 12,3 14,1 19,1 20,9 18,8 6 3 10 5 SE 1021,7 67 0 0,0
15.09.2019 22:00:00 16,7 12,5 15,3 19,9 21,1 18,8 8 4 11 6 SE 1021,8 70 0 0,0
15.09.2019 21:00:00 18,8 12,5 17,1 20,9 21,3 18,8 8 4 10 5 SE 1021,4 56 0 0,0
15.09.2019 20:00:00 22,0 11,8 18,3 22,2 21,3 18,8 7 4 12 6 WNW 1020,7 75 19 0,0
15.09.2019 19:00:00 24,3 11,3 23,4 23,7 21,1 18,8 10 5 23 12 WNW 1020,3 75 60 0,0
15.09.2019 18:00:00 25,5 10,8 26,7 25,1 20,9 18,8 13 7 24 13 WNW 1020,6 63 60 0,0
15.09.2019 17:00:00 25,8 11,4 28,3 26,0 20,5 18,8 16 9 29 16 W 1020,9 48 60 0,0
15.09.2019 16:00:00 25,7 12,2 30,0 26,5 20,0 18,8 19 10 30 16 W 1021,5 70 60 0,0
15.09.2019 15:00:00 24,8 13,9 29,7 26,6 19,4 18,8 16 9 29 16 W 1022,1 61 60 0,0
15.09.2019 14:00:00 23,9 15,2 30,7 25,7 18,9 18,8 11 6 22 12 WSW 1022,9 46 60 0,0
15.09.2019 13:00:00 23,0 15,0 28,9 24,2 18,5 18,8 14 7 22 12 W 1023,6 63 60 0,0
15.09.2019 12:00:00 21,5 14,0 26,4 22,1 18,2 18,8 7 4 16 9 SW 1024,2 45 53 0,0
15.09.2019 11:00:00 19,9 13,9 24,7 20,1 18,0 18,8 10 5 16 9 W 1024,9 57 59 0,0
15.09.2019 10:00:00 17,7 12,4 21,8 18,0 18,0 18,8 4 2 6 4 WSW 1025,1 57 60 0,0
15.09.2019 09:00:00 15,5 10,8 17,2 15,6 18,2 18,8 3 2 6 3 NNE 1025,3 35 60 0,0
15.09.2019 08:00:00 12,7 10,9 11,0 14,9 18,4 18,8 3 2 8 5 ENE 1025,4 29 22 0,0
15.09.2019 07:00:00 11,6 10,4 10,2 15,0 18,6 18,8 6 3 9 5 E 1025,6 22 0 0,0
15.09.2019 06:00:00 12,1 10,8 10,2 15,4 18,9 18,8 6 3 8 5 NE 1025,7 26 0 0,0
15.09.2019 05:00:00 12,3 10,9 10,6 15,7 19,1 18,8 5 3 10 5 E 1026,1 21 0 0,0
15.09.2019 04:00:00 12,7 10,9 11,4 16,1 19,4 18,8 8 4 10 5 E 1026,5 25 0 0,0
15.09.2019 03:00:00 13,2 11,1 10,6 16,5 19,6 18,8 0 0 11 6 N 1026,7 30 0 0,0
15.09.2019 02:00:00 14,1 11,1 11,6 17,0 19,9 18,8 7 4 9 5 NE 1026,9 41 0 0,0
15.09.2019 01:00:00 13,6 11,6 12,0 17,5 20,2 18,8 4 2 6 3 ESE 1027,3 36 0 0,0
15.09.2019 00:00:00 14,6 12,2 12,0 18,1 20,4 18,8 3 2 7 4 E 1027,9 46 0 0,0
14.09.2019 23:00:00 15,0 12,6 13,5 18,9 20,7 18,8 6 3 7 4 SE 1028,3 39 0 0,0
14.09.2019 22:00:00 16,3 13,1 14,4 19,8 20,9 18,8 5 3 9 5 SE 1028,2 46 0 0,0
14.09.2019 21:00:00 18,2 13,3 15,9 20,8 21,0 18,8 5 3 8 4 SSE 1028,2 50 0 0,0
14.09.2019 20:00:00 20,8 12,2 16,4 22,1 21,0 18,8 6 3 10 5 NE 1027,6 58 21 0,0
14.09.2019 19:00:00 23,1 12,0 22,8 23,7 20,9 18,8 6 3 11 6 N 1027,4 64 60 0,0
14.09.2019 18:00:00 24,1 12,3 26,4 25,1 20,6 18,8 9 5 16 9 NNE 1027,3 75 60 0,0
14.09.2019 17:00:00 24,5 12,6 27,6 25,8 20,2 18,8 6 4 17 9 NNE 1027,7 59 52 0,0
14.09.2019 16:00:00 24,4 12,5 29,5 26,1 19,7 18,8 6 3 18 10 ENE 1028,2 71 54 0,0
14.09.2019 15:00:00 23,5 12,7 29,3 25,8 19,2 18,8 11 6 22 12 NNE 1029,0 56 50 0,0
14.09.2019 14:00:00 23,9 13,8 30,6 24,9 18,7 18,8 10 5 18 10 NE 1029,5 57 57 0,0
14.09.2019 13:00:00 22,0 12,6 28,6 23,6 18,3 18,8 5 3 15 8 ESE 1030,0 40 60 0,0
14.09.2019 12:00:00 20,9 13,4 26,0 21,5 18,1 18,8 9 5 17 9 ENE 1030,8 41 60 0,0
14.09.2019 11:00:00 19,4 13,0 23,6 19,9 17,9 18,8 9 5 22 12 E 1031,1 41 60 0,0
14.09.2019 10:00:00 17,7 12,5 21,2 17,8 18,0 18,8 10 6 22 12 ENE 1032,0 47 60 0,0
14.09.2019 09:00:00 16,0 12,2 17,1 16,2 18,1 18,8 14 8 21 12 NE 1032,2 56 60 0,0
14.09.2019 08:00:00 14,4 12,2 13,0 15,7 18,2 18,8 6 3 14 8 ENE 1032,0 35 18 0,0
14.09.2019 07:00:00 14,3 12,5 13,0 16,1 18,4 18,8 6 3 13 7 NE 1031,7 48 0 0,0
14.09.2019 06:00:00 14,4 12,6 13,2 16,4 18,5 18,8 8 5 11 6 NE 1031,6 44 0 0,0
14.09.2019 05:00:00 14,8 13,0 14,2 16,5 18,7 18,8 5 3 13 7 E 1032,0 39 0 0,0
14.09.2019 04:00:00 14,8 13,1 14,4 16,6 18,9 18,8 7 4 11 6 NE 1032,3 39 0 0,0
14.09.2019 03:00:00 14,4 13,1 13,4 16,8 19,1 18,8 6 3 7 4 E 1032,2 41 0 0,0
14.09.2019 02:00:00 14,3 13,1 12,5 16,8 19,3 18,9 3 2 7 4 SE 1032,4 45 0 0,0
14.09.2019 01:00:00 14,9 13,4 12,8 17,3 19,5 18,9 4 2 6 3 E 1032,3 49 0 0,0
14.09.2019 00:00:00 15,6 13,8 13,5 17,9 19,7 18,9 5 3 7 4 E 1032,3 45 0 0,0
13.09.2019 23:00:00 16,2 14,0 14,6 18,6 19,9 18,9 6 3 8 4 SSE 1032,2 36 0 0,0
13.09.2019 22:00:00 18,0 14,0 14,2 19,4 20,0 18,9 5 3 6 4 NE 1031,7 53 0 0,0
13.09.2019 21:00:00 19,4 14,0 16,2 20,5 20,1 18,9 3 2 9 5 N 1031,5 65 0 0,0
13.09.2019 20:00:00 20,6 14,5 19,5 21,3 20,1 18,9 4 2 8 5 NNE 1031,1 66 0 0,0
13.09.2019 19:00:00 21,3 14,3 21,1 22,2 20,0 18,9 6 3 16 9 WNW 1031,0 66 0 0,0
13.09.2019 18:00:00 21,8 14,3 22,5 23,2 19,8 18,9 9 5 18 10 NW 1030,7 75 3 0,0
13.09.2019 17:00:00 22,3 13,5 24,6 23,9 19,5 18,9 10 6 19 10 WNW 1030,7 64 29 0,0
13.09.2019 16:00:00 22,7 14,5 26,5 23,7 19,1 18,9 14 8 23 12 WNW 1030,7 47 14 0,0
13.09.2019 15:00:00 22,3 14,0 25,0 24,0 18,7 18,9 11 6 24 13 WNW 1031,0 58 2 0,0
13.09.2019 14:00:00 22,3 14,4 27,2 24,0 18,3 18,9 14 8 25 14 W 1031,3 45 38 0,0
13.09.2019 13:00:00 21,5 14,5 24,1 22,9 17,8 18,9 11 6 24 13 WNW 1031,5 68 40 0,0
13.09.2019 12:00:00 21,0 14,2 26,0 22,5 17,4 18,9 12 6 20 11 WNW 1031,9 55 60 0,0
13.09.2019 11:00:00 19,4 13,8 24,4 20,9 17,1 18,9 6 4 17 9 W 1031,8 73 60 0,0
13.09.2019 10:00:00 17,7 12,6 21,7 17,9 17,1 18,9 5 3 8 4 W 1031,8 37 60 0,0
13.09.2019 09:00:00 15,4 11,7 15,2 14,8 17,2 18,9 1 1 4 2 SSE 1031,9 55 40 0,0
13.09.2019 08:00:00 13,1 11,1 11,4 13,9 17,4 18,9 3 2 4 2 E 1032,0 35 21 0,0
13.09.2019 07:00:00 12,1 11,2 10,5 13,9 17,6 18,9 3 2 5 3 E 1031,8 29 0 0,0
13.09.2019 06:00:00 12,1 11,1 10,9 14,2 17,9 19,0 4 2 5 3 ESE 1031,5 29 0 0,0
13.09.2019 05:00:00 12,7 11,8 10,7 14,5 18,1 19,0 3 2 4 2 NNE 1031,5 30 0 0,0
13.09.2019 04:00:00 13,0 11,8 10,7 14,9 18,3 19,0 3 2 5 3 SE 1031,4 44 0 0,0
13.09.2019 03:00:00 13,5 12,0 11,4 15,3 18,6 19,0 4 2 5 3 SSE 1031,4 45 0 0,0
13.09.2019 02:00:00 13,9 12,7 11,2 15,8 18,8 19,0 0 0 6 3 N 1031,3 60 0 0,0
13.09.2019 01:00:00 14,2 12,7 12,7 16,4 19,1 19,0 5 3 9 5 SE 1031,3 53 0 0,0
13.09.2019 00:00:00 15,1 13,0 13,7 17,0 19,4 19,0 6 3 8 4 SSE 1031,2 64 0 0,0
12.09.2019 23:00:00 15,7 13,3 14,5 17,7 19,6 19,0 8 4 10 5 SE 1031,0 62 0 0,0
12.09.2019 22:00:00 16,9 13,7 15,3 18,4 19,8 19,0 6 3 8 5 SE 1030,9 55 0 0,0
12.09.2019 21:00:00 18,7 13,8 16,4 19,4 19,9 19,0 6 3 10 5 SE 1030,4 49 0 0,0
12.09.2019 20:00:00 20,6 13,3 18,0 20,8 19,9 19,0 8 4 23 12 WNW 1029,8 65 27 0,0
12.09.2019 19:00:00 22,9 13,6 23,8 22,3 19,8 19,0 8 5 19 11 W 1029,4 75 32 0,0
12.09.2019 18:00:00 22,6 13,0 22,6 23,4 19,6 19,1 11 6 24 13 W 1029,2 68 25 0,0
12.09.2019 17:00:00 22,6 13,1 23,4 24,5 19,2 19,1 15 8 28 15 WNW 1029,5 59 35 0,0
12.09.2019 16:00:00 22,9 13,2 25,6 24,8 18,8 19,1 17 9 29 16 W 1029,8 40 30 0,0
12.09.2019 15:00:00 22,3 12,7 25,1 24,7 18,3 19,1 16 9 36 19 WNW 1029,9 53 27 0,0
12.09.2019 14:00:00 22,3 12,1 26,9 24,3 17,8 19,1 15 8 37 20 W 1030,1 46 29 0,0
12.09.2019 13:00:00 22,7 11,8 29,1 23,9 17,4 19,1 16 9 32 17 W 1030,3 65 52 0,0
12.09.2019 12:00:00 20,9 11,2 25,3 21,1 17,1 19,1 12 6 24 13 WSW 1030,5 41 52 0,0
12.09.2019 11:00:00 19,3 10,1 22,7 18,3 17,0 19,1 10 5 24 13 WSW 1030,5 64 10 0,0
12.09.2019 10:00:00 18,5 9,9 19,5 18,1 16,8 19,1 14 7 19 11 W 1030,2 55 25 0,0
12.09.2019 09:00:00 17,4 9,8 18,4 16,3 16,9 19,2 4 2 10 5 W 1029,5 40 37 0,0
12.09.2019 08:00:00 16,6 9,2 14,2 14,9 17,0 19,2 3 2 6 4 WNW 1029,0 54 16 0,0
12.09.2019 07:00:00 15,9 10,1 14,3 15,2 17,1 19,2 4 2 6 3 NNE 1028,6 48 0 0,0
12.09.2019 06:00:00 15,9 9,4 12,6 15,3 17,1 19,2 3 2 9 5 SW 1028,0 69 0 0,0
12.09.2019 05:00:00 15,9 9,7 14,6 15,4 17,2 19,2 4 2 9 5 SW 1028,2 56 0 0,0
12.09.2019 04:00:00 15,5 9,5 13,7 15,3 17,4 19,2 5 3 11 6 NNW 1028,0 71 0 0,0
12.09.2019 03:00:00 16,3 8,9 14,8 15,6 17,5 19,2 7 4 14 8 WSW 1027,6 72 0 0,0
12.09.2019 02:00:00 16,5 8,9 15,1 15,7 17,6 19,2 5 3 11 6 W 1027,5 62 0 0,0
12.09.2019 01:00:00 16,7 8,8 15,4 15,9 17,8 19,3 8 5 16 9 SW 1027,0 63 0 0,0
12.09.2019 00:00:00 16,5 8,8 15,1 16,1 17,9 19,3 5 3 13 7 W 1027,0 57 0 0,0
11.09.2019 23:00:00 16,8 8,7 15,4 16,4 18,1 19,3 4 2 15 8 WSW 1026,8 59 0 0,0
11.09.2019 22:00:00 17,4 8,3 16,0 16,7 18,3 19,3 8 4 13 7 SW 1026,3 57 0 0,0
11.09.2019 21:00:00 17,8 8,6 15,9 17,0 18,4 19,3 7 4 17 9 SW 1025,8 69 0 0,0
11.09.2019 20:00:00 18,6 8,0 16,9 17,7 18,5 19,3 12 7 23 12 W 1024,9 67 0 0,0
11.09.2019 19:00:00 19,4 7,5 18,0 18,9 18,5 19,3 9 5 24 13 W 1024,3 70 0 0,0
11.09.2019 18:00:00 20,0 6,8 18,4 20,5 18,3 19,3 15 8 28 15 WNW 1024,0 63 38 0,0
11.09.2019 17:00:00 21,5 6,7 23,0 22,6 18,0 19,4 14 8 26 14 W 1023,3 39 60 0,0
11.09.2019 16:00:00 21,0 6,7 24,0 23,2 17,5 19,4 14 7 26 14 W 1023,3 49 60 0,0
11.09.2019 15:00:00 21,2 7,4 24,7 24,0 16,9 19,4 8 4 21 12 W 1023,4 67 60 0,0
11.09.2019 14:00:00 20,2 7,8 24,2 23,4 16,3 19,4 8 4 20 11 SSW 1023,7 34 60 0,0
11.09.2019 13:00:00 19,3 7,3 24,0 22,3 15,6 19,4 8 4 14 8 W 1023,7 49 60 0,0
11.09.2019 12:00:00 17,4 7,4 21,7 20,3 15,2 19,4 5 3 10 6 W 1024,3 35 60 0,0
11.09.2019 11:00:00 15,6 8,8 19,7 17,6 14,9 19,4 4 2 9 5 WNW 1024,6 33 60 0,0
11.09.2019 10:00:00 13,3 8,4 16,1 14,5 14,9 19,5 4 2 7 4 N 1024,4 30 60 0,0
11.09.2019 09:00:00 10,7 7,1 11,1 11,5 15,0 19,5 5 3 7 4 E 1024,3 25 60 0,0
11.09.2019 08:00:00 8,5 6,7 6,5 10,1 15,3 19,5 0 0 5 3 N 1024,2 20 24 0,0
11.09.2019 07:00:00 7,3 6,4 5,4 10,2 15,5 19,5 3 2 5 3 E 1023,7 20 0 0,0
11.09.2019 06:00:00 7,2 6,4 5,4 10,6 15,8 19,5 2 1 7 4 ENE 1023,0 19 0 0,0
11.09.2019 05:00:00 7,9 6,9 6,0 11,0 16,0 19,5 4 2 8 5 ENE 1022,5 19 0 0,0
11.09.2019 04:00:00 8,2 7,1 6,6 11,3 16,3 19,5 6 3 9 5 E 1022,4 19 0 0,0
11.09.2019 03:00:00 8,6 7,3 7,4 11,8 16,6 19,6 8 4 10 5 E 1022,3 19 0 0,0
11.09.2019 02:00:00 9,3 7,8 7,8 12,2 16,9 19,6 6 3 10 5 ENE 1022,1 21 0 0,0
11.09.2019 01:00:00 9,5 8,0 7,6 12,7 17,2 19,6 4 2 6 4 ENE 1021,8 34 0 0,0
11.09.2019 00:00:00 9,7 7,9 8,4 13,4 17,5 19,6 4 2 6 4 ESE 1021,5 39 0 0,0
10.09.2019 23:00:00 10,9 8,3 9,0 14,1 17,8 19,6 3 2 7 4 ESE 1021,2 49 0 0,0
10.09.2019 22:00:00 11,6 8,9 9,8 15,0 18,0 19,6 5 3 10 5 SSE 1020,9 47 0 0,0
10.09.2019 21:00:00 13,4 9,5 11,7 16,2 18,1 19,6 7 4 9 5 SE 1020,2 48 0 0,0
10.09.2019 20:00:00 16,7 7,7 13,7 17,7 18,2 19,7 6 4 10 5 NE 1019,1 56 18 0,0
10.09.2019 19:00:00 18,4 6,8 16,7 19,2 18,0 19,7 5 3 9 5 NNE 1018,6 65 45 0,0
10.09.2019 18:00:00 19,6 5,7 19,5 20,5 17,8 19,7 3 2 10 5 N 1017,9 71 59 0,0
10.09.2019 17:00:00 19,6 6,9 20,9 20,8 17,5 19,7 6 3 13 7 N 1017,7 48 38 0,0
10.09.2019 16:00:00 19,1 7,3 21,6 21,9 17,0 19,7 8 4 15 8 NNE 1017,7 62 47 0,0
10.09.2019 15:00:00 19,2 7,4 22,2 22,2 16,5 19,7 6 4 17 9 E 1017,7 55 60 0,0
10.09.2019 14:00:00 18,8 7,4 22,1 21,6 15,9 19,7 9 5 19 10 ESE 1017,5 55 59 0,0
10.09.2019 13:00:00 18,5 8,5 21,8 20,6 15,4 19,8 8 4 13 7 ESE 1017,7 46 60 0,0
10.09.2019 12:00:00 16,6 9,0 19,4 18,1 15,0 19,8 6 4 18 10 ESE 1018,1 42 53 0,0
10.09.2019 11:00:00 14,7 9,5 16,0 15,8 14,8 19,8 10 6 19 10 E 1017,8 29 37 0,0
10.09.2019 10:00:00 14,4 9,8 16,1 14,2 14,7 19,8 4 2 7 4 E 1017,5 31 60 0,0
10.09.2019 09:00:00 10,3 7,6 10,9 11,3 14,9 19,8 4 2 9 5 E 1018,1 31 60 0,0
10.09.2019 08:00:00 7,8 6,9 7,1 10,0 15,1 19,8 6 3 9 5 E 1017,7 18 7 0,0
10.09.2019 07:00:00 7,2 6,6 6,1 10,2 15,3 19,8 5 3 9 5 E 1017,3 11 0 0,0
10.09.2019 06:00:00 7,3 6,8 6,7 10,3 15,5 19,9 7 4 10 5 ENE 1017,0 14 0 0,0
10.09.2019 05:00:00 7,3 6,7 6,4 10,6 15,8 19,9 7 4 9 5 NE 1017,0 11 0 0,0

tt = temperature
td = dewpoint
tt 5cm = temperature 5cm
tt -5cm = temperature -5cm
tt -20cm = temperature -20cm
tt -100cm = temperature -100cm
ff = wind speed
fx = gusts
dd = wind direction
ppp = reduced air pressure
vv = visibility
sd = sunshine duration
rr = precipitation

Next stations